Vårt webkamera more information My webcam


webkamera på Randaberg more information webcam on Randaberg


Nedbørsradar  rain snow radar


Besøk vår andre værside:

Alternativ webside

Alternativ mobil

Regnskvett RandabergWebsite of another weatherstation



Ikke nødvendig med spesiell oppmerksomhet.    Det er ingen advarsler

Select another period ( hide this area )

enheter Periode Custom range Directly to
Metric Engelsk Begge
Daglig Weekly Månedlig Årlig
use both date-selectors for a custom range
previous Dag
With this date

WeatherUnderground graphs for this period ( click here )


Daglig sammendrag for Torsdag 14 November 2019
Tid Temp. ( °C ) Dew pt. ( °C ) Vind ( km/h ) fra Vindkast ( km/h ) Trykk ( hPa ) Humid.( % ) Rainrate ( cm )
Max5,8 1,2 13,0 Nord ( 92/173 ) 16,3 999,2 74 -
Snitt5,1 0,4 2,5 Stille #43/69 3,8 998,7 71 -
Min4,3 -0,3 -   0,0 998,2 69 -
Daglig Tabular details for Torsdag 14 November 2019
Tid Temp. ( °C ) Dew pt. ( °C ) Vind ( km/h ) fra Vindkast ( km/h ) Trykk ( hPa ) Humid.( % ) Rainrate ( cm )
00:00 4,7 0,1 8,7 Nord 8,7 998,2 72 -
00:05 4,5 0,1 6,9 Nord 7,6 998,2 73 -
00:10 4,5 0,1 4,0 Nord 8,7 998,2 73 -
00:15 4,4 0,0 5,0 NV 7,6 998,2 73 -
00:20 4,3 0,1 2,9 Nord 7,6 998,2 74 -
00:25 4,4 0,2   Stille   998,2 74 -
00:30 4,4 0,2   Stille   998,2 74 -
00:35 4,8 0,4 6,4 Nord 13,0 998,2 73 -
00:40 5,0 0,4 6,4 NNV 10,1 998,5 72 -
00:45 5,2 0,4 11,1 Nord 11,1 998,5 71 -
00:50 5,2 0,4 7,6 Nord 13,0 998,5 71 -
00:55 5,2 0,4 9,3 NNV 10,1 998,5 71 -
01:00 5,0 0,2 9,3 NNV 13,7 998,5 71 -
01:05 5,1 0,3 6,4 12,2 998,5 71 -
01:10 4,9 0,1 5,0 ØNØ 10,1 998,5 71 -
01:15 4,7 0,1 7,6 ØNØ 10,1 998,5 72 -
01:20 4,4 0,0 5,8 Nord 5,8 998,5 73 -
01:25 4,3 -0,1   Stille   998,5 73 -
01:30 4,3 -0,3   Stille   998,5 72 -
01:35 4,4 -0,2   Stille   998,5 72 -
01:40 4,7 -0,1   Stille   998,5 71 -
01:45 4,8 0,0 3,2 NNV 8,7 998,5 71 -
01:50 4,7 -0,1 4,7 Øst 5,0 998,5 71 -
01:55 4,6 -0,2   Stille   998,9 71 -
02:00 4,7 -0,1   Stille   998,9 71 -
02:05 4,8 -0,2   Stille   998,9 70 -
02:10 5,0 -0,2 6,9 Nord 12,2 998,9 69 -
02:15 5,2 0,0 2,1 NNV 6,9 998,9 69 -
02:20 5,1 0,1   Stille   998,9 70 -
02:25 5,1 0,1 10,1 NNV 16,3 998,5 70 -
02:30 5,2 0,0 6,9 Nord 12,2 998,5 69 -
02:35 5,2 0,0 13,0 Nord 14,0 998,5 69 -
02:40 5,2 0,0 6,9 NNV 10,5 998,5 69 -
02:45 5,2 0,2 5,8 Nord 11,1 998,5 70 -
02:50 5,1 0,1   Stille   998,5 70 -
02:55 4,9 0,1 5,8 Nord 8,2 998,9 71 -
03:00 4,9 0,1 5,0 NNV 8,2 998,9 71 -
03:05 4,8 0,0   Stille   998,9 71 -
03:10 4,9 0,1   Stille   998,9 71 -
03:15 4,9 0,1   Stille   998,9 71 -
03:20 4,9 0,3   Stille   998,9 72 -
03:25 5,0 0,4   Stille   998,5 72 -
03:30 5,1 0,5   Stille   998,5 72 -
03:35 5,1 0,5   Stille   998,5 72 -
03:40 5,1 0,5   Stille   998,5 72 -
03:45 5,2 0,4   Stille   998,5 71 -
03:50 5,4 0,6   Stille   998,5 71 -
03:55 5,5 0,7   Stille   998,5 71 -
04:00 5,6 0,8   Stille   998,5 71 -
04:05 5,6 0,8   Stille   998,5 71 -
04:10 5,4 0,6   Stille   998,5 71 -
04:15 5,5 0,9   Stille   998,5 72 -
04:20 5,5 0,7   Stille   998,5 71 -
04:25 5,6 1,0   Stille   998,9 72 -
04:30 5,6 0,8   Stille   998,9 71 -
04:35 5,7 0,9   Stille   998,9 71 -
04:40 5,7 0,9   Stille   998,9 71 -
04:45 5,6 1,0   Stille   998,9 72 -
04:50 5,4 0,9   Stille   998,9 73 -
04:55 5,5 0,9   Stille   998,9 72 -
05:00 5,6 1,0   Stille   998,9 72 -
05:05 5,6 1,0   Stille   998,9 72 -
05:10 5,7 1,0   Stille   999,2 72 -
05:15 5,7 1,0   Stille   999,2 72 -
05:20 5,6 1,0   Stille   999,2 72 -
05:25 5,6 1,1   Stille   999,2 73 -
05:30 5,7 1,2   Stille   999,2 73 -
05:35 5,7 1,2   Stille   999,2 73 -
05:40 5,8 1,1   Stille   999,2 72 -
Daglig sammendrag for Torsdag 14 November 2019
Tid Temp. ( °C ) Dew pt. ( °C ) Vind ( km/h ) fra Vindkast ( km/h ) Trykk ( hPa ) Humid.( % ) Rainrate ( cm )
Max5,8 1,2 13,0 Nord ( 92/173 ) 16,3 999,2 74 -
Snitt5,1 0,4 2,5 Stille #43/69 3,8 998,7 71 -
Min4,3 -0,3 -   0,0 998,2 69 -
Daglig Tabular details for Torsdag 14 November 2019
Tid Temp. ( °C ) Dew pt. ( °C ) Vind ( km/h ) fra Vindkast ( km/h ) Trykk ( hPa ) Humid.( % ) Rainrate ( cm )
00:00 4,7 0,1 8,7 Nord 8,7 998,2 72 -
00:05 4,5 0,1 6,9 Nord 7,6 998,2 73 -
00:10 4,5 0,1 4,0 Nord 8,7 998,2 73 -
00:15 4,4 0,0 5,0 NV 7,6 998,2 73 -
00:20 4,3 0,1 2,9 Nord 7,6 998,2 74 -
00:25 4,4 0,2   Stille   998,2 74 -
00:30 4,4 0,2   Stille   998,2 74 -
00:35 4,8 0,4 6,4 Nord 13,0 998,2 73 -
00:40 5,0 0,4 6,4 NNV 10,1 998,5 72 -
00:45 5,2 0,4 11,1 Nord 11,1 998,5 71 -
00:50 5,2 0,4 7,6 Nord 13,0 998,5 71 -
00:55 5,2 0,4 9,3 NNV 10,1 998,5 71 -
01:00 5,0 0,2 9,3 NNV 13,7 998,5 71 -
01:05 5,1 0,3 6,4 12,2 998,5 71 -
01:10 4,9 0,1 5,0 ØNØ 10,1 998,5 71 -
01:15 4,7 0,1 7,6 ØNØ 10,1 998,5 72 -
01:20 4,4 0,0 5,8 Nord 5,8 998,5 73 -
01:25 4,3 -0,1   Stille   998,5 73 -
01:30 4,3 -0,3   Stille   998,5 72 -
01:35 4,4 -0,2   Stille   998,5 72 -
01:40 4,7 -0,1   Stille   998,5 71 -
01:45 4,8 0,0 3,2 NNV 8,7 998,5 71 -
01:50 4,7 -0,1 4,7 Øst 5,0 998,5 71 -
01:55 4,6 -0,2   Stille   998,9 71 -
02:00 4,7 -0,1   Stille   998,9 71 -
02:05 4,8 -0,2   Stille   998,9 70 -
02:10 5,0 -0,2 6,9 Nord 12,2 998,9 69 -
02:15 5,2 0,0 2,1 NNV 6,9 998,9 69 -
02:20 5,1 0,1   Stille   998,9 70 -
02:25 5,1 0,1 10,1 NNV 16,3 998,5 70 -
02:30 5,2 0,0 6,9 Nord 12,2 998,5 69 -
02:35 5,2 0,0 13,0 Nord 14,0 998,5 69 -
02:40 5,2 0,0 6,9 NNV 10,5 998,5 69 -
02:45 5,2 0,2 5,8 Nord 11,1 998,5 70 -
02:50 5,1 0,1   Stille   998,5 70 -
02:55 4,9 0,1 5,8 Nord 8,2 998,9 71 -
03:00 4,9 0,1 5,0 NNV 8,2 998,9 71 -
03:05 4,8 0,0   Stille   998,9 71 -
03:10 4,9 0,1   Stille   998,9 71 -
03:15 4,9 0,1   Stille   998,9 71 -
03:20 4,9 0,3   Stille   998,9 72 -
03:25 5,0 0,4   Stille   998,5 72 -
03:30 5,1 0,5   Stille   998,5 72 -
03:35 5,1 0,5   Stille   998,5 72 -
03:40 5,1 0,5   Stille   998,5 72 -
03:45 5,2 0,4   Stille   998,5 71 -
03:50 5,4 0,6   Stille   998,5 71 -
03:55 5,5 0,7   Stille   998,5 71 -
04:00 5,6 0,8   Stille   998,5 71 -
04:05 5,6 0,8   Stille   998,5 71 -
04:10 5,4 0,6   Stille   998,5 71 -
04:15 5,5 0,9   Stille   998,5 72 -
04:20 5,5 0,7   Stille   998,5 71 -
04:25 5,6 1,0   Stille   998,9 72 -
04:30 5,6 0,8   Stille   998,9 71 -
04:35 5,7 0,9   Stille   998,9 71 -
04:40 5,7 0,9   Stille   998,9 71 -
04:45 5,6 1,0   Stille   998,9 72 -
04:50 5,4 0,9   Stille   998,9 73 -
04:55 5,5 0,9   Stille   998,9 72 -
05:00 5,6 1,0   Stille   998,9 72 -
05:05 5,6 1,0   Stille   998,9 72 -
05:10 5,7 1,0   Stille   999,2 72 -
05:15 5,7 1,0   Stille   999,2 72 -
05:20 5,6 1,0   Stille   999,2 72 -
05:25 5,6 1,1   Stille   999,2 73 -
05:30 5,7 1,2   Stille   999,2 73 -
05:35 5,7 1,2   Stille   999,2 73 -
05:40 5,8 1,1   Stille   999,2 72 -

Download your copy of this data-set  here

Our weather-data as stored at Weather Underground. Script utviklet av Jim McMurry. Tilrettelagt for malen av Leuven-Template.eu

Du finner vår vær info også på:

European Weather Network

WeatherCloud

Weather Underground

Citizen Weather Observer Program (CWOP)

Utstyr vi bruker:

Værstsjon
Oregon scientific WMR 300

Værprogram
Meteobridge

Oregon scientific WMR 300

Meteobridge